{"data":{"norad_id":53723,"epoch":"2026-05-24T19:58:32.187072Z","epoch_age_seconds":92686,"freshness":"FRESH","line1":"1 53723U 22107Z   26144.83231698 -.00000444  00000+0 -97946-5 0  9992","line2":"2 53723  53.2147 271.9467 0001351  91.6579 268.4568 15.08832560206057","mean_motion":15.0883256,"eccentricity":0.0001351,"inclination_deg":53.2147,"raan_deg":271.9467,"arg_perigee_deg":91.6579,"mean_anomaly_deg":268.4568,"bstar":-9.7946e-6,"rev_number":20605,"period_min":95.438025276973,"perigee_km":538.83152144825,"apogee_km":540.70073887402,"semimajor_km":6917.9031301611,"source":"CELESTRAK","updated_at":"2026-05-25T13:38:17.535739Z"}}